Overview Statistics Trail Chart Weather Telemetry Raw packets
 

This is the latest recevied weather packets stored in our database for station/object NO9B. If no packets are shown the sender has not sent any weather packets the latest 10 day(s).

<< 69 70 71 72 73 74 75 >>
Time Temp. Humidity Pressure Rain* Wind** Luminosity Snow
1788196186 30° C 66% 1013.7 hPa 0 mm - 537 W/m² -
1788195882 29.44° C 67% 1013.9 hPa 0 mm - 533 W/m² -
1788195579 29.44° C 66% 1013.7 hPa 0 mm - 516 W/m² -
1788195274 29.44° C 69% 1014 hPa 0 mm - 444 W/m² -
1788194971 28.89° C 69% 1014 hPa 0 mm - 497 W/m² -
1788194666 28.89° C 69% 1013.9 hPa 0 mm - 492 W/m² -
1788194361 28.89° C 68% 1013.9 hPa 0 mm - 374 W/m² -
1788194057 28.33° C 70% 1013.9 hPa 0 mm - 518 W/m² -
1788193755 28.33° C 69% 1013.9 hPa 0 mm - 89 W/m² -
1788193451 28.33° C 69% 1013.9 hPa 0 mm - 76 W/m² -
1788193149 27.78° C 74% 1014 hPa 0 mm - 84 W/m² -
1788192846 27.78° C 75% 1014.1 hPa 0 mm - 72 W/m² -
1788192541 27.22° C 74% 1013.9 hPa 0 mm - 73 W/m² -
1788192236 26.67° C 74% 1014 hPa 0 mm - 92 W/m² -
1788191931 26.67° C 73% 1014.1 hPa 0 mm - 79 W/m² -
1788191630 27.22° C 75% 1014.1 hPa 0 mm - 88 W/m² -
1788191326 27.22° C 74% 1014.1 hPa 0 mm - 120 W/m² -
1788191023 26.67° C 74% 1014.3 hPa 0 mm - 129 W/m² -
1788190721 26.67° C 75% 1014.1 hPa 0 mm - 108 W/m² -
1788190417 26.11° C 76% 1014.3 hPa 0 mm - 109 W/m² -
1788190113 26.11° C 78% 1014.3 hPa 0 mm - 75 W/m² -
1788189808 26.11° C 79% 1014.1 hPa 0 mm - 83 W/m² -
1788189511 26.11° C 78% 1014.3 hPa 0 mm - 62 W/m² -
1788189202 25.56° C 79% 1014.4 hPa 0 mm - 95 W/m² -
1788188898 25.56° C 80% 1014.4 hPa 0 mm - 68 W/m² -

* Rain latest hour (hover to see other rain measurements)
** Current wind speed in m/s (hover to see current wind gust speed)